Total_Precipitation_Accumulation
0.33 0.43 0.43 0.32 0.24 0.19 0.17 0.17 0.25 0.22 0.26 0.36 0.41 0.48 0.46 0.49 0.40 0.32 0.13 0.09 0.10 0.08 0.07 0.08 0.11 0.14 0.18 0.20 0.23 0.30 0.39 0.45 0.54 0.68 0.83 0.99 1.14 1.24
0.36 0.41 0.49 0.50 0.43 0.36 0.32 0.30 0.36 0.34 0.36 0.43 0.50 0.48 0.38 0.26 0.19 0.20 0.12 0.09 0.07 0.06 0.05 0.05 0.06 0.07 0.07 0.10 0.11 0.12 0.15 0.21 0.26 0.34 0.44 0.56 0.73 0.98
0.49 0.50 0.48 0.58 0.62 0.56 0.52 0.46 0.44 0.45 0.42 0.41 0.48 0.42 0.31 0.19 0.14 0.12 0.08 0.06 0.04 0.05 0.04 0.03 0.04 0.05 0.05 0.06 0.08 0.08 0.08 0.09 0.11 0.15 0.20 0.26 0.32 0.41
0.52 0.68 0.69 0.64 0.61 0.57 0.54 0.53 0.53 0.57 0.54 0.43 0.41 0.37 0.31 0.25 0.19 0.14 0.09 0.05 0.04 0.08 0.08 0.06 0.05 0.05 0.05 0.04 0.05 0.06 0.07 0.07 0.06 0.06 0.07 0.09 0.13 0.18
0.34 0.57 0.76 0.89 0.82 0.62 0.51 0.47 0.51 0.59 0.60 0.51 0.44 0.43 0.37 0.28 0.20 0.14 0.11 0.07 0.05 0.06 0.07 0.06 0.06 0.05 0.04 0.03 0.03 0.03 0.03 0.03 0.03 0.03 0.03 0.04 0.05 0.06
0.21 0.31 0.44 0.65 0.82 0.86 0.73 0.58 0.54 0.57 0.57 0.53 0.56 0.63 0.55 0.37 0.21 0.15 0.13 0.09 0.06 0.03 0.04 0.03 0.03 0.02 0.02 0.02 0.02 0.02 0.02 0.02 0.02 0.02 0.03 0.03 0.03 0.03
0.15 0.19 0.22 0.30 0.44 0.61 0.73 0.77 0.72 0.63 0.62 0.61 0.74 0.98 0.88 0.61 0.33 0.17 0.13 0.10 0.07 0.04 0.03 0.02 0.01 0.01 0.01 0.01 0.01 0.01 0.01 0.01 0.01 0.01 0.02 0.02 0.03 0.03
0.21 0.20 0.17 0.17 0.21 0.32 0.45 0.59 0.73 0.74 0.71 0.70 0.81 0.96 0.93 0.73 0.48 0.27 0.13 0.08 0.10 0.08 0.05 0.03 0.02 0.01 0.01 0.00 0.01 0.01 0.01 0.01 0.00 0.00 0.01 0.01 0.01 0.02
0.28 0.28 0.19 0.11 0.14 0.18 0.25 0.35 0.44 0.56 0.66 0.71 0.78 0.89 0.94 0.80 0.56 0.32 0.18 0.13 0.08 0.07 0.05 0.04 0.01 0.01 0.00 0.00 0.01 0.01 0.00 0.00 0.00 0.00 0.00 0.00 0.00 0.00
0.29 0.29 0.25 0.19 0.16 0.16 0.19 0.22 0.27 0.32 0.40 0.51 0.62 0.75 0.83 0.80 0.62 0.45 0.33 0.22 0.14 0.10 0.05 0.04 0.02 0.01 0.00 0.00 0.01 0.00 0.00 0.00 0.00 0.00 0.00 0.00 0.00 0.00
0.28 0.29 0.29 0.25 0.18 0.12 0.16 0.18 0.21 0.25 0.29 0.36 0.46 0.58 0.66 0.69 0.66 0.51 0.37 0.21 0.17 0.14 0.05 0.02 0.02 0.02 0.02 0.01 0.00 0.00 0.00 0.00 0.00 0.00 0.00 0.00 0.00 0.00
0.40 0.41 0.35 0.31 0.24 0.13 0.13 0.15 0.16 0.19 0.22 0.24 0.29 0.38 0.45 0.49 0.53 0.44 0.29 0.16 0.11 0.10 0.05 0.02 0.02 0.03 0.04 0.02 0.00 0.00 0.00 0.00 0.00 0.00 0.00 0.00 0.00 0.00
0.47 0.53 0.46 0.36 0.24 0.16 0.13 0.15 0.13 0.16 0.20 0.23 0.26 0.30 0.39 0.46 0.44 0.44 0.36 0.19 0.09 0.06 0.03 0.01 0.02 0.03 0.03 0.01 0.01 0.00 0.00 0.00 0.00 0.00 0.00 0.00 0.00 0.00
0.51 0.65 0.65 0.54 0.39 0.26 0.18 0.15 0.11 0.11 0.17 0.23 0.26 0.28 0.32 0.35 0.37 0.41 0.40 0.30 0.16 0.08 0.04 0.02 0.01 0.01 0.02 0.02 0.02 0.01 0.00 0.00 0.00 0.00 0.00 0.00 0.00 0.00
0.47 0.69 0.78 0.68 0.55 0.42 0.31 0.23 0.16 0.12 0.14 0.17 0.20 0.22 0.24 0.26 0.29 0.36 0.38 0.31 0.21 0.12 0.07 0.03 0.02 0.01 0.01 0.01 0.01 0.01 0.00 0.00 0.00 0.00 0.00 0.00 0.00 0.00
0.34 0.46 0.62 0.69 0.64 0.58 0.46 0.33 0.23 0.17 0.16 0.16 0.18 0.21 0.26 0.28 0.27 0.25 0.26 0.23 0.18 0.13 0.08 0.04 0.02 0.01 0.01 0.00 0.00 0.00 0.00 0.00 0.00 0.00 0.00 0.00 0.00 0.00
0.34 0.43 0.57 0.68 0.69 0.66 0.60 0.48 0.36 0.28 0.24 0.22 0.25 0.25 0.27 0.28 0.23 0.17 0.16 0.13 0.11 0.08 0.06 0.04 0.03 0.02 0.01 0.00 0.00 0.00 0.00 0.00 0.00 0.00 0.00 0.00 0.00 0.00
0.27 0.41 0.53 0.65 0.73 0.73 0.71 0.63 0.49 0.39 0.32 0.30 0.31 0.28 0.25 0.26 0.21 0.14 0.11 0.10 0.08 0.06 0.05 0.03 0.02 0.02 0.01 0.00 0.00 0.00 0.00 0.00 0.00 0.00 0.00 0.00 0.00 0.00
0.17 0.31 0.40 0.51 0.64 0.73 0.73 0.65 0.55 0.47 0.41 0.40 0.40 0.36 0.28 0.23 0.20 0.14 0.10 0.09 0.08 0.06 0.03 0.02 0.03 0.02 0.01 0.01 0.00 0.00 0.00 0.00 0.00 0.00 0.00 0.00 0.00 0.00
0.12 0.22 0.29 0.38 0.52 0.66 0.70 0.65 0.61 0.56 0.51 0.48 0.48 0.45 0.35 0.25 0.19 0.14 0.09 0.06 0.06 0.05 0.04 0.02 0.02 0.02 0.02 0.01 0.00 0.00 0.00 0.00 0.00 0.00 0.00 0.00 0.00 0.00
0.13 0.18 0.23 0.29 0.41 0.58 0.67 0.66 0.64 0.58 0.54 0.52 0.52 0.48 0.42 0.30 0.21 0.14 0.10 0.08 0.05 0.04 0.04 0.03 0.01 0.01 0.01 0.00 0.00 0.00 0.00 0.00 0.00 0.00 0.00 0.00 0.00 0.00
0.18 0.19 0.20 0.24 0.35 0.50 0.60 0.63 0.65 0.59 0.53 0.52 0.54 0.49 0.43 0.34 0.25 0.17 0.11 0.08 0.05 0.04 0.04 0.04 0.01 0.00 0.00 0.01 0.00 0.00 0.00 0.00 0.00 0.00 0.00 0.00 0.00 0.00
0.19 0.16 0.14 0.18 0.28 0.41 0.49 0.54 0.61 0.58 0.50 0.46 0.50 0.51 0.42 0.36 0.29 0.20 0.12 0.08 0.06 0.05 0.05 0.04 0.02 0.00 0.00 0.00 0.00 0.00 0.00 0.00 0.00 0.00 0.00 0.00 0.00 0.00